Temperature
19 18 18 18 18 18 18 18 18 18 18 17 17 17 17 17 17 17 17 17 17 17 17 17 17 17 17 17 17 17 17 17 17 17 17 17 17 17 17 16 16 16 16
19 19 18 18 18 18 18 18 18 17 17 17 17 17 17 17 17 17 17 17 16 17 17 17 17 17 17 17 17 17 17 17 17 17 17 17 17 17 16 16 16 16 16
19 18 18 18 18 18 17 17 17 17 17 17 17 17 17 17 16 17 17 16 16 16 16 16 16 16 16 16 17 17 17 17 17 16 16 16 16 16 16 16 16 16 16
19 18 18 18 18 18 17 17 17 17 17 17 17 16 16 16 16 16 16 16 16 16 16 16 16 16 16 16 16 16 16 16 16 16 16 16 16 16 16 16 16 16 15
18 18 18 18 17 17 17 17 17 17 16 16 16 16 16 16 16 16 16 16 16 16 16 16 16 16 16 16 16 16 16 16 16 16 16 16 16 15 16 15 15 15 15
18 18 17 17 17 17 17 17 16 16 16 16 16 16 16 16 16 16 16 16 16 16 15 16 16 16 16 16 16 16 16 15 15 15 15 15 15 15 15 15 15 15 15
18 17 17 17 17 16 16 16 16 16 16 16 16 16 16 16 16 16 16 16 15 15 15 15 15 15 15 16 16 15 15 15 15 15 15 15 15 15 15 15 15 15 15
17 17 17 16 16 16 16 16 16 15 15 15 15 15 15 15 15 15 15 15 15 15 15 15 14 15 15 15 15 15 15 15 15 15 15 15 15 14 14 14 14 14 14
17 16 16 16 16 16 16 15 15 15 15 15 15 15 15 15 15 15 15 15 15 14 14 14 14 14 15 15 15 14 14 14 14 14 14 14 14 14 14 14 14 14 14
16 16 16 16 16 15 15 15 15 15 15 15 14 14 14 14 14 14 14 14 14 14 14 14 14 14 14 14 14 14 14 14 14 14 14 14 14 14 14 14 13 13 13
16 16 15 15 15 15 15 15 15 15 15 14 14 14 14 14 14 14 14 14 14 13 13 13 13 14 14 14 14 13 13 13 13 13 13 13 13 13 13 13 13 13 13
15 15 15 15 15 15 15 15 14 14 14 14 14 14 14 14 14 14 13 13 13 13 13 13 13 13 13 13 13 13 13 13 13 13 13 13 13 13 13 13 13 13 13
15 15 15 15 15 15 15 14 14 14 14 14 13 13 13 13 13 13 13 13 13 13 13 13 13 13 12 12 12 12 12 12 12 12 12 12 12 12 12 12 12 12 12
15 15 15 15 15 14 14 14 14 14 14 13 13 13 13 13 13 13 13 13 13 12 12 12 12 12 12 12 12 12 12 12 12 12 12 12 12 12 12 12 12 12 12
14 14 14 14 14 14 14 14 14 14 14 14 13 13 13 13 13 13 13 12 12 12 12 12 12 12 12 12 12 11 11 11 11 11 11 11 11 11 11 11 11 11 11
14 14 14 14 14 14 14 14 14 14 13 13 13 13 13 13 13 13 12 12 12 12 11 11 11 11 11 11 11 11 11 11 11 11 11 11 11 11 11 11 11 11 11
14 14 14 14 14 14 14 14 13 13 13 13 13 13 13 12 12 12 12 12 12 11 11 11 11 11 11 11 11 11 11 11 11 11 11 11 10 10 10 10 10 10 10
14 14 14 14 14 14 14 14 13 13 13 13 13 12 12 12 12 12 11 11 11 11 11 10 10 10 10 10 10 10 10 10 10 10 10 10 10 10 10 10 10 10 9
13 14 14 14 14 14 13 13 13 13 13 12 12 12 12 12 11 11 11 11 10 10 10 10 10 10 10 10 9 9 9 9 9 9 9 9 9 9 9 9 9 9 9
13 13 13 13 13 13 13 13 13 13 12 12 12 12 11 11 11 11 10 10 10 10 9 9 9 9 9 9 9 9 9 9 9 9 9 9 8 8 8 8 8 8 8
13 13 13 13 13 13 13 13 12 12 12 12 12 11 11 11 10 10 10 10 10 9 9 9 9 9 9 9 9 9 9 8 8 8 8 8 8 8 8 8 8 8 8
13 13 13 13 13 13 12 12 12 12 12 11 11 11 11 10 10 10 9 9 9 9 9 9 8 8 8 8 8 8 8 8 8 7 7 7 7 7 7 7 7 7 7
13 13 13 13 13 12 12 12 12 11 11 11 11 11 10 10 9 9 9 9 9 8 8 8 8 8 8 8 7 7 7 7 7 7 7 7 7 6 6 6 6 6 6
13 13 13 12 12 12 12 11 11 11 11 10 10 10 10 9 9 9 9 8 8 8 8 8 7 7 7 7 7 7 6 6 6 6 6 6 6 6 6 6 6 6 6
12 13 12 12 12 11 11 11 11 10 10 10 10 10 9 9 9 9 8 8 8 8 7 7 7 7 7 7 6 6 6 6 6 6 6 6 6 5 5 5 5 5 5
12 12 12 12 12 11 11 10 10 10 10 10 9 9 9 9 9 8 8 8 7 7 7 7 7 6 6 6 6 6 6 6 5 5 5 5 5 5 5 5 5 5 5
Wind_Speed
6 5 4 4 4 4 3 3 2 2 2 2 2 2 3 3 3 3 3 3 3 3 3 3 3 3 3 3 3 2 3 2 3 3 2 1 2 2 3 5 8 9 10
4 4 4 3 3 3 3 3 3 3 2 2 2 3 3 3 3 3 4 4 4 4 3 3 4 3 3 3 3 3 3 3 3 4 2 1 2 3 4 5 5 8 8
4 4 3 4 4 3 3 2 2 2 2 2 2 2 2 3 3 3 3 3 4 3 3 3 3 3 3 3 3 3 3 4 3 3 3 2 2 2 3 4 5 3 6
4 4 3 3 3 3 3 3 2 2 2 2 2 2 2 3 3 3 3 3 3 3 2 2 2 2 3 3 3 3 3 4 3 4 3 3 3 3 2 3 3 3 4
3 3 3 3 2 2 2 2 2 2 2 2 2 2 2 2 2 2 3 3 3 3 2 2 2 2 2 2 3 2 3 3 3 4 3 3 3 2 2 3 4 3 4
2 2 2 3 2 2 2 2 2 1 1 1 1 1 1 2 2 2 2 2 3 3 3 3 3 3 3 3 2 2 2 3 3 3 3 3 3 3 2 3 3 4 4
2 2 2 2 2 2 2 1 1 1 1 1 1 1 1 2 2 3 2 2 3 3 3 3 4 3 1 2 3 4 4 5 5 4 4 4 4 3 3 4 4 5 5
2 2 2 2 2 1 1 1 1 1 1 1 0 0 0 1 3 3 3 3 3 3 3 3 2 2 3 2 3 4 4 4 5 4 4 5 4 4 4 5 6 6 5
2 2 2 2 1 1 1 1 1 0 1 1 1 1 0 1 2 3 3 3 3 3 2 1 1 0 3 4 4 4 4 4 4 5 5 5 6 6 5 3 4 5 6
1 1 1 1 2 1 1 1 1 1 0 1 1 1 1 0 1 2 2 3 2 2 1 0 1 1 2 2 3 4 5 5 4 4 4 5 6 5 5 4 4 4 4
0 1 1 1 2 2 1 1 1 1 1 1 1 2 2 1 1 1 1 2 3 3 2 1 1 1 1 2 3 4 5 6 5 5 4 4 4 4 4 4 5 4 5
1 1 1 1 2 2 1 1 1 1 2 2 2 2 2 2 1 1 2 3 4 3 3 1 2 2 3 4 4 5 7 6 5 5 4 4 4 4 4 5 5 6 6
0 1 1 2 2 2 3 3 2 2 2 2 2 1 0 1 1 2 2 3 4 3 3 4 3 4 5 4 6 6 6 4 4 4 5 4 4 4 3 3 4 4 6
1 1 1 2 2 2 2 2 2 2 1 1 1 1 0 1 1 2 2 2 3 2 3 3 4 4 4 4 4 4 4 4 4 4 4 4 4 4 3 3 3 3 4
1 2 2 2 2 2 2 1 2 1 2 1 0 0 0 0 1 1 1 2 3 3 4 3 2 2 2 3 3 2 2 3 4 4 4 4 5 4 3 3 3 3 4
1 1 1 2 2 3 3 2 2 2 4 4 3 2 1 1 1 1 2 3 4 3 2 2 3 3 3 3 3 3 2 3 4 4 4 4 4 4 4 3 3 3 4
2 2 2 1 2 3 3 3 2 1 2 2 3 2 2 1 0 1 2 3 4 2 1 2 3 3 3 4 4 3 3 3 3 3 3 4 4 4 3 3 3 3 3
2 1 1 1 1 1 2 2 2 2 2 1 2 3 3 2 1 1 2 3 3 1 1 2 3 3 3 3 4 4 4 4 4 4 4 4 4 4 4 4 4 4 4
2 1 1 1 1 1 0 1 1 1 1 1 2 2 2 1 2 1 2 1 2 2 2 2 3 3 3 3 3 3 3 3 4 3 4 4 4 4 4 4 4 5 5
2 1 1 1 0 0 0 0 0 0 0 1 1 1 2 2 1 1 1 1 2 3 3 3 3 4 3 3 3 3 4 4 4 4 4 4 5 4 4 5 5 4 4
1 1 1 1 1 0 0 0 0 0 1 1 1 2 3 1 1 1 0 0 1 2 3 4 4 3 4 4 4 5 5 4 5 6 6 6 6 5 5 5 5 5 5
1 1 1 0 1 1 1 1 0 1 1 1 2 2 4 1 1 2 2 2 2 2 2 3 4 4 4 4 5 5 5 6 6 6 6 6 6 6 6 6 5 5 5
1 1 1 1 1 2 1 1 1 1 1 1 1 1 1 1 2 2 2 3 2 2 2 2 3 4 4 5 5 5 6 6 6 7 7 7 6 6 6 6 7 7 6
1 0 1 1 2 1 1 1 1 1 1 1 2 1 1 1 1 2 2 2 2 3 3 3 4 5 7 6 6 7 8 8 8 8 8 8 8 7 6 6 6 7 6
0 1 1 1 1 1 1 1 1 1 1 1 1 1 1 1 1 1 1 2 2 3 4 4 4 4 6 7 8 7 8 10 10 9 8 7 7 8 7 7 6 6 5
1 1 1 0 1 1 1 1 1 1 1 1 1 1 1 1 0 1 1 2 2 3 3 3 4 5 6 7 7 7 7 9 10 11 9 7 7 7 7 6 7 6 6
Wind_Direction
172 179 181 177 183 184 187 190 188 184 192 201 203 202 203 206 221 225 230 229 232 243 249 253 260 270 280 281 276 268 264 248 252 276 262 205 181 193 188 208 199 197 206
167 171 174 171 178 184 192 198 195 196 203 199 208 216 220 220 227 234 234 241 239 243 244 247 254 259 272 278 281 277 277 267 250 258 262 251 231 201 200 217 217 217 212
165 164 161 175 184 190 198 199 197 198 207 214 211 219 229 240 245 248 245 249 252 254 251 248 252 251 269 265 276 285 278 276 266 263 265 258 246 230 219 241 241 233 232
154 160 163 179 185 191 190 194 200 203 215 226 235 236 236 242 250 255 251 253 259 265 266 264 269 268 277 280 270 280 282 287 282 271 265 261 248 242 228 242 254 245 254
158 168 174 178 178 181 186 194 197 205 216 221 236 249 251 251 259 260 251 240 244 252 254 259 269 280 280 269 272 289 287 283 278 271 267 275 273 257 255 257 262 257 255
163 172 166 166 167 181 192 186 196 214 218 231 250 262 262 275 332 350 293 266 255 247 247 248 242 251 247 232 242 259 264 270 286 288 281 274 270 267 271 277 278 275 272
150 153 151 158 166 177 197 188 203 210 181 216 276 277 300 340 352 356 331 272 268 263 266 268 272 282 252 257 242 248 259 263 253 266 287 289 288 284 268 268 276 278 271
141 139 143 158 163 157 173 185 191 186 182 196 266 350 281 335 359 349 327 265 265 260 260 271 284 328 312 310 286 267 256 259 257 248 260 273 284 303 283 268 269 270 271
138 143 147 156 156 158 181 186 163 154 182 169 144 134 314 336 351 341 325 285 273 273 271 294 290 294 319 320 298 290 286 276 263 253 246 255 263 274 278 283 281 275 276
155 147 138 161 178 186 215 218 198 175 192 203 177 169 200 289 336 357 341 294 286 290 287 313 28 330 309 327 300 298 290 291 293 279 273 269 265 264 257 242 261 276 283
317 155 157 188 196 176 173 179 179 207 218 237 237 198 193 200 262 306 333 318 311 299 292 292 286 298 300 299 291 287 287 294 290 276 268 261 259 256 248 240 238 244 261
279 230 186 199 228 190 169 188 206 222 229 235 241 236 208 191 209 279 275 279 295 303 307 316 312 300 291 285 282 286 295 300 291 285 279 277 273 268 259 245 242 238 238
224 233 213 188 196 195 201 207 212 215 230 231 230 239 253 91 47 354 309 298 300 296 316 324 308 296 299 290 276 281 288 286 285 284 285 284 279 273 267 259 248 247 253
205 233 222 173 176 182 186 185 203 216 229 239 232 241 212 87 42 6 341 320 311 301 311 306 288 273 279 285 291 287 274 272 277 280 288 291 291 282 277 274 271 269 266
236 226 227 197 188 189 191 205 199 173 177 199 275 335 116 241 276 257 288 311 318 314 311 292 294 301 298 291 292 292 282 274 273 277 283 290 292 289 286 287 281 278 278
249 242 231 204 197 195 179 158 75 111 148 144 151 165 137 126 149 346 327 325 327 341 336 312 319 320 317 312 307 306 305 305 299 291 287 290 295 298 298 298 300 300 294
258 256 265 241 213 208 192 182 169 117 106 134 155 148 136 142 159 319 330 336 331 357 332 313 319 323 328 331 329 328 323 319 316 315 319 314 307 303 304 304 301 298 294
260 251 249 246 241 234 198 190 196 191 185 135 136 142 141 153 161 288 6 24 350 341 295 308 317 328 339 338 336 335 338 340 336 332 331 329 328 319 311 306 300 291 285
262 273 255 261 257 238 185 190 203 190 175 162 131 113 141 127 78 42 66 8 325 339 342 342 336 339 345 341 341 341 341 340 335 334 339 335 326 319 316 313 308 304 295
226 230 237 244 252 259 125 225 170 160 192 113 125 106 103 75 51 54 109 295 325 342 348 355 352 345 346 349 345 345 345 343 342 344 346 338 327 319 313 310 310 309 305
256 179 181 221 285 333 51 43 56 95 73 72 93 116 136 154 293 331 5 321 335 340 354 351 348 351 357 356 350 345 345 354 1 355 346 336 329 325 321 319 318 316 313
258 200 176 150 81 69 71 65 61 65 54 44 63 104 150 163 360 8 6 13 19 18 11 359 348 355 3 358 351 346 352 6 8 355 340 332 329 328 327 326 325 324 324
247 221 161 117 106 97 93 55 42 46 47 33 24 75 102 22 15 27 12 9 16 4 4 7 356 356 1 3 5 16 21 12 355 344 337 331 327 323 320 321 320 319 321
255 236 94 84 82 86 87 77 41 31 31 30 42 44 70 65 21 18 14 10 5 13 17 13 14 18 20 17 25 36 29 11 356 347 343 332 326 322 320 318 316 318 320
246 92 94 83 70 71 90 71 39 20 9 25 40 33 21 41 40 16 11 13 10 15 15 15 24 27 27 30 38 31 19 9 1 348 333 322 320 320 318 318 317 317 322
32 29 12 52 109 122 126 91 54 31 44 42 51 51 23 358 13 28 25 26 18 21 19 20 23 30 40 48 38 31 21 3 350 340 329 315 312 317 324 323 320 319 318
Height
1515 1516 1518 1519 1520 1521 1522 1523 1524 1525 1526 1526 1527 1527 1527 1527 1528 1528 1528 1529 1529 1528 1528 1529 1529 1529 1529 1529 1529 1529 1529 1529 1527 1527 1527 1528 1528 1528 1528 1528 1528 1528 1528
1513 1515 1516 1517 1519 1520 1520 1521 1522 1523 1523 1524 1524 1525 1525 1525 1526 1526 1526 1526 1526 1526 1526 1526 1526 1526 1526 1526 1526 1526 1526 1526 1526 1524 1524 1525 1525 1525 1525 1525 1525 1525 1525
1512 1513 1514 1515 1517 1518 1519 1520 1520 1520 1521 1522 1522 1522 1523 1523 1523 1523 1523 1523 1523 1523 1523 1523 1523 1523 1523 1523 1522 1523 1523 1523 1523 1522 1522 1522 1522 1522 1522 1522 1522 1522 1522
1511 1511 1512 1513 1515 1516 1516 1517 1518 1518 1519 1519 1520 1520 1520 1520 1520 1520 1520 1520 1520 1520 1520 1520 1520 1520 1520 1520 1520 1520 1520 1520 1520 1519 1519 1518 1518 1518 1518 1518 1518 1518 1518
1509 1510 1510 1511 1513 1513 1514 1515 1515 1516 1517 1517 1517 1517 1517 1517 1517 1517 1517 1517 1517 1517 1517 1517 1517 1517 1516 1517 1517 1516 1517 1516 1516 1516 1515 1515 1515 1515 1515 1515 1514 1514 1514
1508 1509 1509 1510 1510 1511 1511 1512 1513 1513 1514 1514 1514 1514 1514 1514 1515 1514 1514 1514 1514 1514 1513 1513 1514 1514 1513 1513 1513 1513 1513 1513 1512 1512 1512 1512 1511 1511 1511 1511 1511 1511 1510
1507 1507 1508 1508 1508 1509 1509 1510 1510 1511 1511 1511 1511 1511 1511 1511 1511 1511 1511 1511 1511 1511 1511 1511 1511 1511 1510 1509 1509 1510 1509 1509 1510 1509 1508 1508 1508 1507 1507 1507 1507 1506 1506
1505 1506 1506 1506 1507 1507 1508 1508 1508 1509 1509 1508 1509 1509 1508 1508 1508 1507 1507 1507 1507 1507 1508 1508 1507 1506 1506 1506 1505 1505 1505 1505 1505 1505 1504 1504 1504 1504 1504 1503 1502 1502 1502
1503 1503 1504 1504 1505 1505 1505 1506 1506 1506 1506 1506 1506 1506 1506 1506 1505 1505 1504 1504 1504 1504 1504 1504 1503 1502 1503 1502 1502 1501 1500 1500 1501 1501 1500 1500 1500 1500 1500 1499 1498 1498 1497
1501 1501 1502 1502 1503 1503 1503 1504 1504 1505 1505 1505 1505 1504 1504 1504 1503 1502 1502 1502 1501 1501 1501 1500 1499 1499 1499 1499 1498 1497 1496 1496 1496 1496 1496 1496 1496 1495 1495 1495 1494 1493 1493
1499 1499 1499 1500 1501 1501 1502 1502 1502 1503 1503 1503 1503 1503 1503 1502 1501 1501 1500 1499 1499 1499 1498 1497 1496 1496 1496 1495 1494 1494 1493 1493 1492 1492 1491 1491 1491 1490 1490 1490 1489 1489 1488
1497 1497 1497 1498 1499 1500 1500 1500 1501 1501 1501 1501 1501 1501 1501 1500 1500 1499 1498 1498 1497 1496 1496 1494 1494 1493 1493 1492 1491 1490 1490 1489 1488 1488 1487 1486 1486 1485 1484 1484 1484 1483 1483
1496 1496 1496 1496 1497 1498 1498 1499 1499 1499 1500 1500 1500 1499 1499 1498 1498 1497 1496 1495 1494 1494 1493 1492 1492 1491 1490 1489 1488 1487 1486 1485 1484 1485 1484 1483 1482 1481 1480 1480 1479 1478 1478
1494 1495 1495 1495 1495 1496 1496 1497 1497 1497 1498 1498 1498 1498 1497 1497 1496 1495 1494 1493 1492 1491 1490 1490 1489 1488 1487 1486 1485 1484 1483 1483 1482 1481 1480 1479 1478 1477 1476 1476 1474 1473 1472
1493 1493 1493 1493 1494 1494 1495 1495 1496 1496 1496 1496 1496 1495 1495 1494 1494 1493 1492 1491 1490 1489 1488 1487 1486 1485 1485 1484 1483 1482 1481 1480 1479 1478 1477 1476 1475 1473 1472 1472 1471 1469 1468
1491 1491 1492 1492 1492 1492 1493 1493 1494 1494 1494 1494 1494 1494 1493 1493 1492 1492 1491 1490 1489 1488 1486 1485 1484 1484 1483 1482 1481 1479 1478 1477 1476 1475 1473 1472 1471 1470 1469 1468 1467 1465 1464
1489 1489 1490 1490 1490 1491 1491 1491 1492 1492 1492 1492 1491 1491 1491 1491 1490 1490 1489 1488 1487 1486 1485 1484 1483 1482 1482 1480 1479 1478 1476 1475 1473 1472 1470 1469 1467 1466 1465 1464 1462 1461 1460
1488 1488 1488 1488 1488 1489 1489 1490 1490 1490 1490 1490 1489 1490 1489 1489 1488 1488 1487 1486 1485 1484 1483 1482 1482 1481 1480 1478 1477 1475 1474 1472 1471 1469 1467 1466 1464 1463 1461 1460 1459 1457 1456
1486 1487 1487 1487 1487 1487 1487 1488 1488 1488 1488 1488 1488 1488 1488 1487 1487 1486 1485 1484 1483 1483 1482 1481 1481 1479 1478 1476 1475 1473 1472 1470 1468 1466 1464 1463 1462 1460 1458 1457 1455 1454 1452
1485 1485 1485 1485 1486 1486 1486 1486 1486 1486 1487 1487 1487 1487 1486 1486 1485 1485 1484 1483 1483 1482 1481 1480 1479 1478 1476 1475 1473 1471 1470 1468 1466 1464 1462 1461 1459 1457 1455 1454 1452 1450 1449
1484 1484 1484 1484 1484 1485 1485 1484 1484 1484 1485 1486 1486 1486 1485 1485 1485 1484 1483 1483 1482 1481 1480 1479 1478 1477 1476 1474 1472 1470 1468 1466 1464 1462 1460 1459 1457 1455 1454 1451 1449 1447 1445
1483 1483 1483 1483 1483 1484 1484 1483 1483 1483 1483 1484 1485 1485 1485 1485 1484 1483 1483 1482 1480 1480 1479 1478 1477 1476 1475 1473 1471 1469 1467 1464 1462 1461 1459 1457 1455 1453 1451 1449 1447 1444 1442
1483 1483 1483 1483 1483 1483 1483 1483 1483 1482 1482 1483 1484 1483 1483 1483 1482 1482 1482 1481 1480 1479 1478 1476 1475 1474 1473 1471 1469 1467 1465 1463 1461 1459 1457 1455 1453 1450 1448 1446 1444 1442 1440
1483 1483 1483 1482 1482 1482 1482 1482 1482 1482 1483 1483 1482 1482 1481 1481 1481 1481 1480 1480 1479 1478 1476 1474 1473 1472 1470 1469 1467 1465 1463 1461 1459 1457 1455 1453 1450 1448 1445 1443 1441 1440 1438
1482 1482 1482 1482 1482 1482 1481 1482 1482 1482 1482 1482 1481 1481 1481 1480 1480 1479 1479 1478 1477 1476 1475 1473 1472 1470 1468 1466 1464 1463 1461 1459 1456 1454 1452 1449 1447 1445 1443 1441 1439 1437 1436
1481 1481 1481 1481 1481 1480 1481 1481 1481 1481 1481 1480 1480 1479 1479 1479 1478 1478 1477 1476 1475 1474 1473 1472 1470 1468 1466 1464 1462 1460 1458 1456 1453 1451 1448 1446 1444 1442 1440 1438 1437 1435 1433